Back to catalog

CZ-4B R/B

AliveSSO
NORAD 37181·ROCKET BODY·🇨🇳 China

Launched Oct 6, 2010 from Taiyuan Satellite Launch Center

Loading…

Next Passes (next 24 hours)

TLE

FreshSource: Space-Track

Epoch: Sep 14, 2026, 09:08 UTC

1 37181U 10051C   26257.38076109  .00003457  00000-0  15745-3 0  9997
2 37181  97.7747 305.0738 0072027 162.0197 198.3609 15.19088635872181

Track CZ-4B R/B in real time with AllMySat

Download on the App Store